[[{"header":{"parameterUnit":"m.s-1","parameterCategory":1,"la1":30.2991,"la2":30.254,"lo1":-89.0895,"lo2":-89.0444,"dy":0.0017,"dx":0.0017,"nx":28,"ny":28,"refTime":"2023-10-18T09:00:00:Z","depth":0,"parameterNumber":2,"parameterNumberName":"U-component_of_WINDS"},"data":[0,0,0,0,0,0,0,0,0,0,0,0,0,0,0,0,0,0,0,0,0,0,0,0,0,0,0,0,0,0,0,0,0,0,0,0,0,0,0,0,0,0,0,0,0,0,0,0,0,0,0,0,0,0,0,0,0,0,-1.0503,-1.0503,0,-1.0512,-1.0512,-1.0512,-1.0522,-1.0522,-1.0522,-1.0522,-1.053,-1.0531,-1.0531,0,0,0,0,0,0,0,0,0,0,0,0,0,-1.0496,-1.0496,-1.0503,-1.0504,-1.0504,-1.0512,-1.0512,-1.0512,-1.0522,-1.0522,-1.0522,-1.0522,-1.053,-1.0531,-1.0531,0,0,0,0,0,0,0,0,0,0,0,0,0,-1.0501,-1.0496,-1.0503,-1.051,-1.051,-1.0512,-1.0512,-1.0512,-1.0522,-1.0522,-1.0522,-1.0522,-1.053,-1.053,-1.0531,-1.0527,0,0,-1.0531,-1.0531,0,0,0,0,0,0,0,0,-1.0501,-1.0501,-1.0509,-1.0509,-1.051,-1.0516,-1.0512,-1.0517,-1.0522,-1.0517,-1.0522,-1.0523,-1.0525,-1.0526,-1.0527,-1.0527,-1.0527,-1.0531,-1.0531,-1.0531,-1.0531,0,0,0,0,0,0,0,-1.0501,-1.0501,-1.0507,-1.0509,-1.0509,-1.0512,-1.0513,-1.0513,-1.052,-1.0518,-1.0518,-1.0519,-1.0526,-1.0527,-1.0527,-1.0528,-1.0531,-1.0531,-1.0531,-1.0531,-1.0525,-1.0525,0,0,0,0,0,0,-1.0499,-1.0501,-1.0506,-1.0507,-1.0506,-1.0512,-1.0513,-1.0514,-1.052,-1.0521,-1.0519,-1.052,-1.0527,-1.0527,-1.0528,-1.0523,-1.0531,-1.0531,-1.0531,-1.0525,-1.0525,-1.0525,0,0,0,0,0,0,-1.0499,-1.05,-1.0506,-1.0504,-1.0505,-1.0512,-1.0513,-1.0514,-1.0515,-1.0521,-1.0522,-1.0519,-1.0527,-1.0527,-1.0527,-1.0524,-1.0531,-1.0531,-1.0526,-1.0525,-1.0525,-1.0515,0,0,0,0,0,0,-1.0499,-1.05,-1.0498,-1.0504,-1.0505,-1.0505,-1.0512,-1.0514,-1.0515,-1.0516,-1.0521,-1.0522,-1.0527,-1.0527,-1.0527,-1.0524,-1.0531,-1.0526,-1.0525,-1.0525,-1.0516,-1.0514,-1.0513,0,0,0,0,0,-1.0499,-1.0495,-1.0498,-1.0499,-1.0503,-1.0505,-1.0506,-1.0511,-1.0515,-1.0513,-1.0517,-1.0522,-1.0524,-1.0527,-1.0527,-1.0524,-1.0526,-1.0526,-1.0525,-1.0516,-1.0515,-1.0513,0,0,0,0,0,0,-1.0488,-1.0496,-1.0499,-1.0497,-1.05,-1.0507,-1.0505,-1.0509,-1.0512,-1.0512,-1.0519,-1.052,-1.0519,-1.0522,-1.0524,-1.0521,-1.0526,-1.0525,-1.0519,-1.0517,-1.0516,-1.0515,-1.0532,0,0,0,0,0,-1.0486,-1.0486,-1.0493,-1.0491,-1.0492,-1.0498,-1.0499,-1.0503,-1.0507,-1.0508,-1.0512,-1.0515,-1.0517,-1.0517,-1.0519,-1.0516,-1.0517,-1.0515,-1.0513,-1.0512,-1.0512,-1.051,-1.0509,-1.0523,-1.0523,-1.0523,0,0,-1.048,-1.0485,-1.0484,-1.0489,-1.0491,-1.0492,-1.0499,-1.0499,-1.05,-1.0508,-1.0508,-1.0511,-1.0515,-1.0513,-1.0513,-1.0515,-1.0508,-1.0512,-1.0511,-1.0511,-1.051,-1.0508,-1.0507,-1.0523,-1.0523,-1.0523,0,0,-1.0471,-1.0474,-1.0473,-1.0476,-1.048,-1.0484,-1.0484,-1.049,-1.0492,-1.0492,-1.0498,-1.0499,-1.0501,-1.0504,-1.0505,-1.0498,-1.0502,-1.0498,-1.0492,-1.0491,-1.0489,-1.0488,-1.0485,-1.0484,-1.0498,-1.0498,-1.0498,0,-1.0464,-1.0465,-1.0471,-1.0471,-1.0473,-1.0481,-1.0479,-1.0482,-1.0486,-1.0487,-1.049,-1.0494,-1.0497,-1.0496,-1.0494,-1.0495,-1.0495,-1.0497,-1.0489,-1.0488,-1.0487,-1.0485,-1.0483,-1.0497,-1.0497,-1.0497,-1.0497,0,-1.0455,-1.0456,-1.0454,-1.0459,-1.046,-1.0459,-1.0466,-1.0467,-1.0471,-1.0475,-1.0475,-1.0479,-1.0482,-1.0482,-1.0486,-1.0482,-1.0484,-1.0488,-1.0493,-1.0485,-1.0483,-1.0482,-1.0496,-1.0497,-1.0497,-1.0497,0,0,-1.0439,-1.0447,-1.0447,-1.0449,-1.0455,-1.0455,-1.0455,-1.0458,-1.0458,-1.0462,-1.0461,-1.0463,-1.0468,-1.0469,-1.0474,-1.0473,-1.0466,-1.0477,-1.0478,-1.0475,-1.0462,-1.0458,-1.0457,-1.047,-1.0469,-1.0469,-1.0461,0,-1.043,-1.043,-1.0436,-1.0434,-1.0435,-1.0443,-1.0442,-1.0446,-1.045,-1.0451,-1.0456,-1.0457,-1.0462,-1.0463,-1.0463,-1.0467,-1.0464,-1.0468,-1.0469,-1.0469,-1.0467,-1.0455,-1.0451,-1.0443,-1.046,-1.046,-1.046,0,-1.0419,-1.0422,-1.042,-1.0426,-1.0427,-1.0427,-1.043,-1.0431,-1.0435,-1.0438,-1.0441,-1.0446,-1.0446,-1.0452,-1.0452,-1.0455,-1.0456,-1.0458,-1.0458,-1.0458,-1.0464,-1.0454,-1.0441,-1.044,-1.0459,-1.0459,-1.0459,0,-1.0407,-1.041,-1.0409,-1.0411,-1.0419,-1.0418,-1.0421,-1.0426,-1.0427,-1.043,-1.0431,-1.0434,-1.0436,-1.0438,-1.0444,-1.0447,-1.0443,-1.0449,-1.0446,-1.0445,-1.0444,-1.0444,-1.043,-1.0445,-1.0445,-1.0445,-1.0445,0,-1.0396,-1.0394,-1.0404,-1.0403,-1.0402,-1.0409,-1.0408,-1.0412,-1.0416,-1.0416,-1.0424,-1.0424,-1.0432,-1.0433,-1.0438,-1.0438,-1.0438,-1.0441,-1.0442,-1.044,-1.0439,-1.044,-1.044,-1.0445,-1.0445,-1.0445,-1.0445,0,-1.0381,-1.0387,-1.0387,-1.0394,-1.0396,-1.0395,-1.0401,-1.0401,-1.0406,-1.0406,-1.0407,-1.0414,-1.0416,-1.0423,-1.0426,-1.0429,-1.0427,-1.043,-1.0425,-1.0426,-1.0422,-1.0422,-1.0407,-1.0406,-1.0423,-1.0423,-1.0422,0,-1.0373,-1.0372,-1.0379,-1.038,-1.0383,-1.0384,-1.0386,-1.0394,-1.0395,-1.04,-1.04,-1.0402,-1.0404,-1.0407,-1.0413,-1.0415,-1.0418,-1.0413,-1.0418,-1.0416,-1.0417,-1.0417,-1.0417,-1.0411,-1.0411,-1.0411,-1.0411,0,-1.0358,-1.0362,-1.0364,-1.0367,-1.0369,-1.0372,-1.0375,-1.0376,-1.0384,-1.0385,-1.0388,-1.0389,-1.0393,-1.0395,-1.0399,-1.0403,-1.0408,-1.0409,-1.0408,-1.0405,-1.0403,-1.0404,-1.0421,-1.0409,-1.0409,-1.0409,-1.0409,-1.0409,-1.0346,-1.0346,-1.0351,-1.0353,-1.0357,-1.036,-1.036,-1.0365,-1.0367,-1.0371,-1.0375,-1.0377,-1.0382,-1.0387,-1.039,-1.0392,-1.0395,-1.0393,-1.0393,-1.0392,-1.0391,-1.0403,-1.0392,-1.0393,-1.0393,-1.0393,-1.0393,0,-1.0332,-1.0335,-1.0337,-1.0342,-1.0344,-1.0349,-1.0354,-1.0355,-1.0356,-1.036,-1.0362,-1.0365,-1.0368,-1.0374,-1.0377,-1.0377,-1.0379,-1.0377,-1.0377,-1.0377,-1.0389,-1.0389,-1.0375,-1.0375,-1.0375,-1.0375,-1.0375,-1.0375,-1.0324,-1.0323,-1.0328,-1.0329,-1.0333,-1.0335,-1.0336,-1.0339,-1.0343,-1.0345,-1.0348,-1.0352,-1.0357,-1.036,-1.0363,-1.0365,-1.0365,-1.0362,-1.0365,-1.0375,-1.0377,-1.0378,-1.0378,-1.0363,-1.0363,-1.0353,-1.0353,-1.0353]},{"header":{"parameterUnit":"m.s-1","parameterCategory":1,"la1":30.2991,"la2":30.254,"lo1":-89.0895,"lo2":-89.0444,"dy":0.0017,"dx":0.0017,"nx":28,"ny":28,"refTime":"2023-10-18T09:00:00:Z","depth":0,"parameterNumber":3,"parameterNumberName":"V-component_of_WINDS"},"data":[0,0,0,0,0,0,0,0,0,0,0,0,0,0,0,0,0,0,0,0,0,0,0,0,0,0,0,0,0,0,0,0,0,0,0,0,0,0,0,0,0,0,0,0,0,0,0,0,0,0,0,0,0,0,0,0,0,0,2.5276,2.5276,0,2.5264,2.5264,2.5263,2.5229,2.5228,2.5228,2.5227,2.5215,2.5216,2.5216,0,0,0,0,0,0,0,0,0,0,0,0,0,2.5271,2.5271,2.5276,2.5276,2.5276,2.5264,2.5264,2.5263,2.5229,2.5228,2.5227,2.5227,2.5215,2.5216,2.5216,0,0,0,0,0,0,0,0,0,0,0,0,0,2.5268,2.5272,2.5276,2.5257,2.5255,2.5264,2.5264,2.5263,2.5229,2.5228,2.5227,2.5226,2.5215,2.5216,2.5216,2.5242,0,0,2.5218,2.5218,0,0,0,0,0,0,0,0,2.5268,2.5268,2.526,2.5258,2.5256,2.5247,2.5258,2.5256,2.523,2.5239,2.5227,2.5226,2.5227,2.5226,2.5226,2.5242,2.5241,2.5218,2.5218,2.5219,2.5219,0,0,0,0,0,0,0,2.5268,2.5268,2.5271,2.526,2.5258,2.525,2.5248,2.5257,2.5239,2.5238,2.5236,2.5235,2.5226,2.5226,2.5226,2.5241,2.5218,2.5218,2.5219,2.5219,2.5276,2.5277,0,0,0,0,0,0,2.5271,2.5269,2.5271,2.5271,2.5259,2.5251,2.5249,2.5251,2.5239,2.5236,2.5236,2.5233,2.5226,2.5225,2.5225,2.5254,2.5219,2.5219,2.5219,2.5275,2.5277,2.5278,0,0,0,0,0,0,2.5271,2.5271,2.5272,2.5269,2.5268,2.5252,2.5255,2.5251,2.5252,2.5237,2.5234,2.5239,2.5225,2.5225,2.5238,2.5253,2.5219,2.522,2.5274,2.5276,2.5277,2.5313,0,0,0,0,0,0,2.5271,2.5272,2.5281,2.5269,2.5269,2.5284,2.5256,2.5252,2.5253,2.5249,2.524,2.5237,2.5224,2.5237,2.5239,2.5254,2.522,2.5272,2.5275,2.5277,2.531,2.5315,2.532,0,0,0,0,0,2.5271,2.5292,2.5282,2.5282,2.528,2.5285,2.5285,2.5269,2.5254,2.5263,2.5254,2.5237,2.5252,2.5239,2.524,2.5255,2.5271,2.5274,2.5277,2.5308,2.5314,2.532,0,0,0,0,0,0,2.5306,2.529,2.5278,2.5296,2.5292,2.528,2.5291,2.5277,2.5277,2.5274,2.5254,2.5253,2.5269,2.5264,2.525,2.528,2.5259,2.5262,2.5282,2.5288,2.5293,2.5293,2.5221,0,0,0,0,0,2.5316,2.5321,2.5307,2.5324,2.5323,2.5307,2.5309,2.5297,2.5292,2.5291,2.5283,2.5279,2.5283,2.5286,2.5288,2.531,2.5307,2.5321,2.5326,2.533,2.5333,2.5343,2.5349,2.5287,2.5287,2.5287,0,0,2.5336,2.5328,2.5332,2.5331,2.5326,2.5333,2.5306,2.5314,2.5318,2.5292,2.5304,2.5298,2.5293,2.531,2.5318,2.5307,2.5349,2.5334,2.5337,2.5337,2.5346,2.5352,2.5358,2.5288,2.5288,2.5288,0,0,2.5375,2.537,2.5383,2.5379,2.5373,2.5363,2.5366,2.5356,2.5351,2.5362,2.5343,2.5348,2.5355,2.5352,2.5351,2.5391,2.5375,2.5392,2.5418,2.5429,2.5433,2.5438,2.5451,2.5456,2.5395,2.5395,2.5395,0,2.5401,2.5409,2.5392,2.5401,2.54,2.5377,2.539,2.5388,2.5383,2.5384,2.5372,2.538,2.5375,2.5391,2.5401,2.5401,2.5404,2.5393,2.5434,2.5438,2.5442,2.5454,2.5459,2.5397,2.5397,2.5397,2.5397,0,2.544,2.5447,2.5458,2.5453,2.5455,2.5466,2.5451,2.5455,2.5443,2.5434,2.5447,2.544,2.5441,2.5444,2.5433,2.5459,2.5452,2.5438,2.5416,2.545,2.5461,2.5466,2.54,2.54,2.5399,2.5398,0,0,2.55,2.5486,2.5491,2.5488,2.548,2.5485,2.5495,2.5496,2.5499,2.5497,2.5505,2.5512,2.5498,2.5498,2.5486,2.5496,2.5526,2.548,2.5479,2.5488,2.5554,2.5564,2.5569,2.5517,2.5517,2.5518,2.5554,0,2.5536,2.5552,2.5538,2.5557,2.5562,2.5541,2.555,2.5546,2.5539,2.5542,2.5534,2.5539,2.5521,2.5521,2.5529,2.5521,2.5539,2.5518,2.5523,2.5524,2.5524,2.5575,2.5586,2.5619,2.5558,2.5559,2.5559,0,2.558,2.558,2.5599,2.559,2.5591,2.56,2.5599,2.5603,2.5599,2.5593,2.5592,2.5578,2.5588,2.5568,2.5581,2.5568,2.5569,2.5566,2.5567,2.5565,2.5543,2.5574,2.563,2.5635,2.5566,2.5566,2.5565,0,2.562,2.5625,2.5637,2.5636,2.5625,2.5631,2.5628,2.5622,2.5623,2.5623,2.5624,2.5625,2.5625,2.5627,2.5614,2.56,2.5629,2.5608,2.5623,2.5624,2.5629,2.5628,2.5684,2.5633,2.5632,2.5632,2.5632,0,2.5661,2.5674,2.5654,2.5662,2.5675,2.5659,2.5673,2.5667,2.5663,2.5669,2.5651,2.5657,2.564,2.5644,2.5635,2.5647,2.5647,2.5643,2.5639,2.5643,2.5644,2.5643,2.564,2.5634,2.5633,2.5633,2.5633,0,2.5707,2.5695,2.5707,2.5696,2.5694,2.5704,2.5695,2.5702,2.5694,2.5702,2.5703,2.569,2.5694,2.5681,2.5684,2.5677,2.5695,2.5689,2.5696,2.5694,2.571,2.5708,2.5766,2.5772,2.5718,2.5718,2.5719,0,2.5734,2.5743,2.5733,2.5736,2.5733,2.5737,2.5738,2.5723,2.5725,2.5721,2.5728,2.5731,2.5732,2.5741,2.5732,2.5734,2.5727,2.5747,2.5727,2.573,2.5726,2.5725,2.5725,2.5751,2.5751,2.5752,2.5752,0,2.5781,2.5775,2.5777,2.5777,2.5779,2.5778,2.5777,2.578,2.5764,2.5767,2.5771,2.5772,2.5775,2.5778,2.5778,2.5774,2.5761,2.5759,2.5763,2.5766,2.5769,2.5766,2.5706,2.5757,2.5757,2.5756,2.5756,2.5756,2.5817,2.5824,2.5819,2.5822,2.5819,2.5818,2.5823,2.5816,2.5819,2.5819,2.5811,2.5817,2.5812,2.5811,2.5809,2.5814,2.5804,2.581,2.5811,2.5812,2.5814,2.577,2.5814,2.5814,2.5813,2.5813,2.5813,0,2.5863,2.5859,2.5862,2.586,2.5862,2.5849,2.5847,2.585,2.5855,2.5852,2.5854,2.5859,2.5862,2.5854,2.5855,2.5861,2.5854,2.5862,2.586,2.586,2.5823,2.5819,2.5867,2.5867,2.5867,2.5867,2.5867,2.5867,2.5887,2.5898,2.5891,2.59,2.5896,2.5901,2.5901,2.59,2.5897,2.5903,2.5906,2.59,2.5895,2.5897,2.5899,2.5897,2.5898,2.5907,2.5902,2.5868,2.5862,2.5857,2.5853,2.5907,2.5908,2.5938,2.5938,2.5939]}]]